Temperature
6 7 7 7 7 7 6 6 6 6 6 5 5 5 5 5 5 4 4 4 4 5 5 5 6 6 6 6 6 7 7 7 7 7 7 8 8 8 8 8 8 8 8 8
6 7 7 6 6 7 6 6 6 6 6 6 5 5 5 4 4 4 4 4 4 4 5 5 5 5 6 6 6 6 6 6 6 7 7 7 7 7 7 7 7 7 7 7
5 6 7 6 6 6 6 6 6 6 6 5 5 5 4 4 4 4 4 4 4 4 4 4 4 5 5 5 5 6 6 6 6 6 6 6 6 6 6 6 6 6 6 6
5 5 6 6 7 7 6 6 6 6 5 5 4 4 5 5 5 4 4 4 4 4 4 4 4 4 4 4 5 5 5 5 5 5 5 5 5 5 5 5 5 5 5 5
4 5 6 6 7 7 6 6 6 5 5 5 5 4 4 4 4 4 4 4 4 3 3 3 3 4 4 4 4 4 4 4 4 4 4 4 4 4 4 4 4 4 4 4
4 6 6 7 7 7 7 6 6 5 4 4 5 3 3 4 4 4 4 4 3 3 3 3 3 3 3 3 3 3 3 3 3 3 3 3 3 3 3 3 3 3 3 3
4 5 5 6 6 7 6 6 6 6 6 5 4 4 4 4 4 4 3 3 3 3 3 3 2 2 2 2 2 2 1 2 2 2 2 2 2 2 2 2 2 2 2 2
4 5 5 6 6 5 6 6 6 6 6 6 5 5 4 4 4 3 3 3 3 2 2 2 2 2 2 1 1 1 1 1 1 1 1 1 1 1 1 1 1 1 0 0
4 5 6 6 7 7 7 7 6 6 6 6 5 4 4 3 3 3 2 2 2 2 1 1 1 1 1 0 0 0 0 0 0 0 -0 -0 -0 -0 -0 -0 -1 -1 -1 -1
3 4 5 6 7 7 7 7 7 6 6 6 5 4 4 3 3 2 2 2 1 1 1 1 0 -0 -0 -1 -1 -1 -1 -1 -1 -1 -1 -1 -1 -1 -2 -2 -2 -2 -2 -2
3 3 5 6 7 7 6 6 6 6 5 5 5 4 3 3 2 2 2 1 1 0 0 -0 -1 -1 -1 -1 -1 -1 -1 -1 -1 -2 -2 -2 -2 -2 -2 -3 -3 -3 -3 -3
4 4 4 6 7 6 6 6 6 5 5 4 4 4 3 2 2 2 1 1 0 -0 -0 -1 -1 -1 -1 -2 -2 -2 -2 -2 -2 -2 -3 -3 -3 -3 -3 -3 -3 -3 -4 -4
7 7 7 7 7 6 6 6 5 5 4 4 3 3 3 2 1 1 1 0 -0 -1 -1 -1 -1 -2 -2 -2 -2 -3 -3 -3 -3 -3 -4 -4 -4 -4 -4 -3 -3 -4 -4 -4
6 6 5 6 6 6 5 5 4 4 4 3 3 2 2 1 1 0 0 -0 -1 -1 -2 -2 -2 -2 -3 -3 -3 -3 -4 -4 -4 -4 -4 -5 -5 -5 -5 -5 -5 -4 -4 -5
6 6 6 6 5 5 5 4 4 3 3 2 2 2 1 1 0 0 -0 -1 -1 -2 -2 -3 -3 -3 -3 -4 -4 -4 -4 -5 -5 -5 -5 -5 -6 -6 -6 -6 -6 -6 -5 -5
5 4 5 5 4 4 4 4 3 3 2 2 2 1 1 0 -0 -1 -1 -2 -2 -2 -3 -3 -4 -4 -4 -4 -5 -5 -5 -5 -6 -6 -6 -6 -6 -7 -7 -7 -7 -7 -6 -6
3 3 3 4 4 4 3 3 3 3 2 2 1 1 0 -0 -1 -1 -2 -2 -3 -3 -4 -4 -4 -5 -5 -5 -5 -6 -6 -6 -6 -6 -7 -7 -7 -7 -8 -8 -7 -7 -7 -7
4 4 4 4 4 3 3 3 2 2 2 1 0 -0 -1 -1 -1 -2 -2 -3 -3 -4 -4 -5 -5 -5 -5 -6 -6 -6 -7 -7 -7 -7 -7 -8 -8 -8 -8 -8 -8 -8 -8 -7
3 3 3 3 3 3 3 2 2 1 1 0 -0 -1 -1 -2 -2 -3 -3 -3 -4 -4 -5 -5 -5 -6 -6 -6 -6 -7 -7 -7 -7 -8 -8 -8 -8 -8 -8 -8 -8 -8 -8 -8
2 3 3 2 2 2 2 2 1 1 0 -0 -1 -1 -2 -2 -3 -3 -4 -4 -5 -5 -5 -6 -6 -6 -6 -7 -7 -7 -8 -8 -8 -8 -8 -9 -9 -9 -9 -9 -9 -9 -9 -8
2 2 2 2 2 1 1 1 0 -0 -1 -1 -1 -2 -2 -3 -3 -4 -4 -4 -5 -5 -6 -6 -6 -7 -7 -7 -8 -8 -8 -8 -9 -9 -9 -9 -9 -9 -9 -9 -9 -9 -9 -9
1 1 1 1 1 1 0 -0 -0 -1 -1 -2 -2 -2 -3 -3 -4 -4 -5 -5 -6 -6 -6 -7 -7 -7 -8 -8 -8 -8 -9 -9 -9 -9 -9 -9 -9 -9 -9 -9 -9 -9 -9 -9
1 1 1 1 0 0 -0 -1 -1 -1 -2 -2 -3 -3 -3 -4 -4 -5 -5 -6 -6 -7 -7 -7 -8 -8 -9 -9 -9 -9 -9 -9 -9 -9 -10 -10 -10 -10 -10 -10 -10 -10 -10 -10
0 0 -0 -0 -0 -1 -1 -1 -2 -2 -3 -3 -3 -4 -4 -5 -5 -5 -6 -6 -7 -7 -7 -8 -8 -8 -9 -9 -9 -9 -9 -10 -10 -10 -10 -10 -10 -10 -10 -10 -10 -10 -10 -10
-0 -0 -0 -1 -1 -1 -1 -2 -2 -3 -3 -4 -4 -4 -5 -5 -6 -6 -6 -7 -7 -7 -8 -8 -8 -9 -9 -9 -9 -10 -10 -10 -10 -10 -10 -10 -10 -10 -10 -10 -10 -10 -10 -10
-0 -1 -1 -1 -1 -2 -2 -2 -3 -3 -4 -4 -4 -5 -5 -6 -6 -6 -7 -7 -8 -8 -8 -8 -9 -9 -9 -9 -10 -10 -10 -10 -10 -10 -10 -10 -10 -10 -10 -10 -10 -10 -10 -10
-1 -1 -1 -2 -2 -2 -3 -3 -3 -4 -4 -4 -5 -5 -6 -6 -6 -7 -7 -8 -8 -8 -9 -9 -9 -9 -10 -10 -10 -10 -10 -10 -10 -10 -10 -10 -10 -10 -10 -10 -10 -10 -10 -10
Wind_Speed
1 1 1 3 5 6 5 3 3 3 3 1 1 3 4 5 7 8 9 10 10 10 10 10 11 11 11 11 11 11 11 12 10 9 8 8 7 6 5 4 3 1 0 1
3 4 3 5 6 5 4 4 5 5 2 1 3 4 5 5 6 7 7 8 8 9 9 10 9 10 10 10 10 10 10 10 9 9 9 8 7 6 6 5 4 3 2 2
2 5 3 4 4 2 2 1 3 3 3 3 4 3 2 2 4 5 5 6 7 7 7 7 7 8 8 8 8 9 9 9 9 9 8 8 7 7 6 5 5 4 3 3
1 4 1 4 3 1 3 2 2 3 3 4 5 4 3 2 3 3 4 4 5 5 6 6 7 7 7 7 8 8 8 9 8 8 8 7 7 6 5 4 4 4 4 3
2 1 2 4 2 1 2 1 1 4 5 5 5 5 3 2 2 2 2 2 3 3 4 5 6 6 7 8 8 9 9 9 9 8 8 8 8 7 5 4 4 4 4 4
2 1 3 4 2 1 3 2 3 5 7 6 5 2 2 1 3 3 3 3 3 3 4 5 6 6 7 8 8 8 8 8 8 7 7 7 7 7 5 5 5 5 5 4
2 2 5 5 1 3 3 6 4 6 6 6 5 4 4 4 3 3 3 3 3 4 4 5 5 5 6 6 6 6 6 6 7 7 7 7 6 6 6 5 5 5 6 5
3 3 6 3 4 5 6 2 4 6 5 6 5 5 5 5 4 3 3 3 3 3 4 5 5 5 5 6 6 6 6 6 7 7 6 6 6 6 6 5 5 6 6 6
6 7 5 4 5 4 4 5 5 5 5 7 6 5 5 4 3 2 2 1 2 2 3 5 5 4 5 6 7 7 6 7 7 7 7 6 6 7 6 5 5 5 5 6
4 6 5 5 3 3 4 5 5 5 6 7 6 6 5 4 3 2 1 1 1 2 3 4 5 4 4 6 6 5 6 6 6 6 7 7 6 5 5 6 6 6 6 6
5 6 4 5 6 5 4 5 5 5 5 7 7 6 5 4 3 2 1 0 1 1 2 4 4 5 5 5 5 5 6 6 6 6 6 7 6 6 6 6 7 8 7 6
8 8 7 6 6 7 7 7 7 7 6 5 6 6 5 4 2 2 1 0 1 2 3 4 5 5 6 5 5 5 6 6 6 6 6 6 7 8 9 10 13 14 13 12
7 5 6 4 4 7 8 8 7 7 8 6 5 5 5 3 2 2 1 0 1 2 3 4 5 6 6 6 5 5 6 7 6 6 6 7 7 8 9 10 12 13 13 15
6 4 3 5 5 6 7 7 7 6 5 6 5 4 4 3 2 2 1 1 2 2 3 4 5 6 7 6 6 6 7 8 7 6 6 6 7 7 7 9 10 9 10 14
6 6 6 5 5 6 6 7 7 6 6 5 4 5 4 3 2 2 1 1 2 3 4 5 6 7 6 6 7 7 7 6 6 6 6 7 7 7 7 8 8 9 9 10
4 2 4 6 8 7 7 8 8 7 6 5 4 4 4 3 2 1 0 1 2 4 5 5 6 6 6 6 7 6 6 10 9 7 7 7 7 7 8 8 8 8 8 8
6 6 7 7 8 8 8 8 8 8 7 6 5 4 4 3 1 0 2 2 3 4 4 5 6 6 6 6 6 6 6 8 11 8 7 7 7 8 8 8 8 8 8 10
9 9 9 9 9 9 8 7 7 7 6 6 6 5 4 3 2 2 2 3 3 4 4 5 6 6 6 6 6 5 6 6 6 7 7 7 8 7 7 8 9 9 8 9
5 6 6 7 8 8 8 7 7 6 6 6 6 5 3 2 2 2 2 2 3 5 5 5 8 6 6 8 8 5 6 7 7 7 7 10 10 7 8 8 8 8 8 8
2 4 5 6 6 7 7 7 7 6 6 6 5 4 3 2 1 1 2 3 3 4 5 7 6 5 7 8 9 5 6 7 7 7 7 7 8 8 8 8 8 8 8 8
3 5 6 7 7 6 7 8 8 7 6 5 5 4 3 2 1 1 2 3 4 4 5 7 5 5 6 7 8 5 6 6 7 7 7 8 8 8 8 8 8 8 8 7
3 5 6 7 8 6 5 6 6 7 6 4 4 3 2 1 1 2 3 3 4 7 5 4 4 8 10 9 4 5 6 7 7 7 7 7 7 8 8 8 7 7 7 7
4 5 6 7 7 7 6 5 5 6 5 4 4 3 2 2 2 2 3 3 3 7 5 4 8 12 12 6 4 5 6 7 7 7 7 7 7 7 7 8 7 7 7 7
4 5 6 6 7 7 6 4 4 4 4 3 2 2 2 1 1 2 2 5 7 8 4 7 11 12 10 4 5 5 6 6 7 7 7 7 7 7 7 7 7 7 7 7
5 5 6 7 7 5 5 5 5 4 3 2 2 1 1 1 2 2 2 3 6 7 4 7 11 11 6 5 5 6 6 6 7 7 6 6 7 7 7 6 6 7 6 6
5 5 5 5 5 5 5 5 4 3 3 2 2 1 1 1 1 2 2 3 5 6 5 4 5 7 5 5 6 6 6 7 8 7 7 7 7 7 7 7 8 7 6 6
5 5 4 4 3 4 4 4 4 4 4 3 2 2 1 1 1 2 3 3 4 4 4 4 4 5 5 5 6 6 6 6 6 6 6 6 6 6 7 7 7 6 6 6
Wind_Direction
327 319 13 23 5 24 57 97 126 130 115 134 94 75 56 52 54 52 46 42 38 36 31 29 28 28 30 29 28 33 39 40 35 31 32 33 33 30 30 31 32 34 18 235
10 10 30 28 8 21 47 71 102 103 88 128 108 84 66 58 60 56 47 41 37 35 33 29 26 25 27 27 25 32 38 34 27 27 28 27 23 21 22 17 13 16 1 318
324 325 19 1 329 357 73 73 148 157 181 140 109 97 94 81 74 68 53 43 35 30 26 22 20 24 25 20 22 31 34 28 23 20 19 15 12 15 11 3 360 356 344 325
16 35 46 265 300 118 110 52 99 132 140 141 135 122 84 87 99 79 59 47 34 25 20 15 15 17 18 22 25 26 25 20 15 11 8 4 5 3 354 347 343 333 322 313
90 66 284 291 274 175 144 305 237 148 140 137 127 88 28 26 84 93 72 55 37 25 20 15 12 8 19 23 20 20 14 6 2 0 358 355 353 345 339 335 331 323 318 315
117 149 235 247 228 158 103 278 240 168 160 159 139 142 241 167 100 81 63 51 42 28 28 20 5 9 23 18 15 7 356 350 350 351 349 343 335 327 324 322 313 312 309 303
160 224 264 251 206 111 169 238 194 172 169 166 178 192 169 134 113 96 76 56 46 40 27 6 358 15 22 12 358 341 338 340 342 344 340 333 327 322 319 317 313 306 300 296
169 206 257 220 140 180 214 189 153 164 166 156 149 130 130 133 123 103 75 48 41 34 12 357 1 14 9 354 334 334 339 341 339 338 337 334 326 322 316 312 310 305 302 300
199 220 251 215 206 213 172 166 172 167 166 149 144 153 153 148 142 132 108 50 28 28 3 352 352 2 354 333 333 337 341 338 334 334 333 330 327 324 321 314 307 305 301 299
258 260 252 243 232 209 183 177 171 161 156 153 155 157 155 154 161 158 127 42 17 21 358 340 337 340 327 321 328 334 332 327 327 330 328 326 325 322 319 316 311 307 304 301
258 266 273 257 222 201 170 143 137 135 147 155 149 153 159 165 171 166 148 58 32 1 323 316 322 323 321 322 330 331 327 325 326 324 320 319 318 313 313 303 306 310 304 298
231 222 206 231 217 183 167 169 162 151 147 148 151 154 154 161 163 152 141 41 1 337 323 318 323 325 328 333 338 333 327 323 319 316 315 316 316 315 308 307 311 311 310 307
231 223 208 223 195 180 177 175 166 160 156 152 147 144 145 149 150 140 133 8 313 311 316 323 329 328 328 330 328 322 314 314 313 313 313 314 314 316 315 317 315 311 311 311
225 188 204 203 198 183 169 158 143 135 138 140 138 133 132 135 140 155 214 274 301 318 323 326 325 320 322 326 324 318 313 313 314 307 306 305 305 306 305 309 315 314 312 311
226 209 206 193 164 155 144 136 136 143 142 136 135 139 146 156 177 208 256 311 329 322 317 320 319 315 320 323 318 312 310 307 306 304 303 302 301 300 300 299 299 304 308 311
213 184 169 169 172 164 154 157 162 168 161 156 156 161 164 164 168 183 299 337 320 309 311 315 311 311 318 317 313 309 305 309 313 307 304 304 303 302 302 300 300 301 303 306
186 197 191 189 186 182 179 176 173 169 164 164 170 160 148 141 140 266 304 307 293 291 300 306 307 312 316 313 306 303 301 307 314 310 303 301 302 301 301 301 301 301 300 302
213 207 195 187 184 180 177 167 161 160 165 167 152 145 151 163 199 254 289 311 316 311 307 306 308 316 315 313 309 304 305 304 306 305 304 303 302 301 301 299 300 301 301 305
211 195 188 181 173 166 165 163 159 154 148 145 148 159 170 184 211 251 285 298 299 302 309 311 322 326 314 313 318 303 305 305 305 304 304 307 308 303 303 302 301 302 305 306
165 155 151 147 145 148 150 148 142 140 143 144 145 150 164 196 226 263 276 275 273 278 297 311 320 314 309 308 317 304 303 303 302 303 304 303 302 301 301 303 304 304 305 307
137 135 135 135 132 132 140 143 143 146 146 147 155 169 186 211 239 261 270 282 289 296 308 320 322 308 304 313 320 310 306 305 305 304 305 306 306 305 304 305 307 308 308 309
147 142 141 137 133 130 129 132 138 141 142 145 151 157 170 210 259 273 262 258 290 314 320 307 302 310 321 327 321 313 310 310 308 306 306 307 308 308 308 310 309 309 309 308
158 152 148 147 145 138 128 130 139 144 149 156 163 174 193 220 232 251 283 288 297 313 319 300 313 321 329 336 319 312 310 310 309 308 307 308 308 308 308 307 305 305 306 306
158 155 149 140 134 137 145 151 142 140 145 152 161 169 175 214 260 247 265 308 317 319 314 313 323 328 335 331 312 308 306 306 305 305 306 308 308 307 305 304 305 306 305 306
159 153 150 150 157 165 162 151 141 142 144 148 156 170 184 203 234 270 283 293 313 321 313 319 326 330 331 310 308 307 307 305 307 311 308 308 307 306 305 304 304 305 306 305
163 167 171 174 169 161 159 159 163 167 166 171 192 204 215 239 261 276 286 293 300 317 315 304 309 318 313 308 307 307 307 309 314 314 308 308 307 308 307 307 307 305 304 302
156 156 154 155 163 164 164 167 172 178 182 188 201 199 202 230 263 280 289 293 299 304 302 303 305 305 305 305 306 306 306 308 310 310 309 307 305 305 306 306 306 304 303 303
Height
1468 1465 1464 1463 1461 1458 1459 1460 1464 1465 1465 1466 1465 1464 1462 1461 1459 1457 1455 1453 1451 1450 1448 1447 1445 1444 1443 1442 1441 1441 1440 1440 1440 1441 1441 1441 1441 1442 1443 1443 1444 1445 1446 1447
1470 1466 1465 1465 1464 1461 1462 1462 1464 1465 1467 1465 1466 1465 1464 1463 1462 1461 1459 1458 1456 1455 1453 1452 1450 1449 1447 1446 1445 1444 1444 1443 1443 1443 1442 1442 1441 1441 1441 1442 1442 1442 1442 1443
1476 1471 1467 1471 1467 1465 1464 1464 1464 1466 1467 1466 1467 1467 1467 1466 1465 1464 1463 1461 1460 1458 1457 1455 1454 1452 1451 1450 1449 1447 1446 1445 1445 1444 1443 1442 1441 1441 1440 1440 1439 1439 1439 1439
1479 1476 1478 1472 1466 1465 1465 1465 1464 1464 1465 1466 1467 1468 1468 1467 1466 1466 1465 1464 1463 1461 1460 1458 1457 1455 1453 1452 1450 1449 1447 1446 1445 1444 1443 1442 1441 1439 1439 1438 1437 1436 1435 1434
1481 1480 1476 1469 1466 1465 1466 1468 1465 1465 1466 1467 1468 1469 1469 1469 1468 1468 1467 1466 1464 1463 1462 1460 1458 1456 1454 1452 1451 1449 1448 1446 1445 1443 1442 1440 1439 1437 1436 1435 1433 1432 1431 1430
1480 1475 1473 1467 1464 1463 1467 1469 1465 1464 1465 1467 1468 1472 1471 1469 1469 1468 1468 1467 1466 1464 1463 1461 1459 1457 1455 1453 1451 1449 1448 1446 1444 1442 1441 1439 1437 1435 1433 1431 1430 1428 1427 1426
1480 1478 1473 1465 1463 1465 1472 1466 1462 1462 1463 1465 1466 1467 1468 1468 1469 1469 1468 1467 1466 1465 1463 1461 1460 1458 1455 1453 1451 1450 1447 1445 1443 1441 1439 1436 1434 1432 1430 1428 1426 1424 1423 1422
1480 1478 1474 1461 1462 1465 1463 1460 1460 1461 1462 1464 1464 1466 1467 1468 1468 1468 1468 1467 1466 1464 1463 1461 1459 1457 1455 1453 1451 1448 1446 1443 1441 1438 1436 1434 1431 1428 1426 1424 1422 1420 1418 1416
1473 1470 1461 1459 1459 1459 1459 1459 1459 1460 1462 1463 1464 1465 1466 1467 1467 1467 1467 1466 1465 1464 1462 1460 1458 1456 1454 1451 1449 1447 1444 1441 1439 1436 1433 1431 1428 1425 1423 1420 1418 1416 1413 1411
1467 1461 1458 1457 1457 1457 1458 1458 1459 1460 1461 1462 1463 1464 1465 1466 1466 1466 1466 1465 1464 1462 1461 1459 1457 1455 1453 1450 1448 1445 1442 1439 1436 1433 1430 1428 1425 1422 1419 1417 1414 1412 1409 1407
1465 1459 1457 1455 1455 1456 1456 1457 1458 1459 1460 1461 1462 1463 1463 1464 1464 1464 1464 1463 1462 1461 1459 1457 1455 1453 1450 1448 1445 1442 1439 1436 1433 1430 1427 1424 1421 1419 1416 1413 1411 1408 1406 1404
1459 1453 1453 1451 1451 1453 1454 1455 1456 1457 1459 1460 1461 1461 1462 1462 1462 1462 1462 1461 1460 1458 1457 1455 1452 1450 1448 1445 1442 1439 1436 1433 1430 1427 1424 1421 1417 1414 1411 1409 1407 1404 1402 1400
1449 1449 1449 1449 1449 1450 1451 1453 1454 1455 1457 1458 1459 1460 1460 1460 1460 1460 1459 1458 1457 1455 1453 1451 1449 1447 1445 1442 1439 1436 1433 1430 1427 1424 1420 1417 1413 1410 1406 1403 1402 1399 1396 1394
1446 1446 1446 1446 1447 1448 1449 1450 1452 1454 1455 1456 1457 1458 1458 1458 1458 1457 1456 1455 1454 1452 1450 1448 1446 1444 1441 1439 1436 1433 1430 1427 1423 1420 1417 1413 1410 1406 1403 1399 1395 1392 1391 1388
1441 1442 1442 1443 1444 1445 1447 1448 1450 1451 1452 1454 1455 1455 1456 1455 1455 1454 1454 1452 1451 1449 1447 1445 1443 1440 1438 1435 1432 1429 1426 1423 1419 1416 1413 1409 1406 1403 1399 1396 1392 1388 1385 1383
1437 1437 1438 1439 1440 1442 1443 1445 1446 1448 1449 1451 1452 1453 1453 1453 1452 1452 1451 1449 1448 1446 1444 1442 1439 1437 1434 1431 1428 1425 1422 1419 1415 1412 1408 1405 1402 1398 1395 1392 1388 1385 1382 1379
1432 1432 1434 1435 1436 1438 1440 1441 1443 1445 1447 1448 1449 1450 1450 1450 1449 1449 1447 1446 1444 1443 1441 1438 1436 1433 1431 1428 1424 1421 1418 1414 1411 1408 1404 1401 1398 1395 1392 1388 1385 1382 1378 1376
1427 1427 1429 1430 1432 1434 1436 1438 1440 1442 1444 1445 1446 1447 1447 1446 1446 1445 1444 1442 1441 1439 1437 1435 1432 1429 1427 1424 1420 1417 1414 1410 1407 1404 1400 1397 1394 1391 1388 1385 1381 1378 1374 1372
1421 1423 1425 1426 1429 1431 1433 1435 1437 1439 1441 1442 1443 1443 1443 1443 1442 1441 1440 1439 1437 1435 1433 1430 1428 1425 1422 1419 1416 1413 1410 1406 1403 1400 1396 1393 1390 1387 1384 1381 1378 1374 1371 1368
1418 1420 1421 1423 1426 1428 1430 1432 1434 1436 1438 1439 1440 1440 1440 1439 1439 1438 1436 1435 1433 1431 1428 1426 1424 1421 1418 1415 1412 1409 1406 1402 1399 1396 1392 1389 1386 1383 1380 1377 1374 1371 1368 1365
1416 1417 1419 1421 1423 1426 1428 1430 1432 1433 1435 1436 1436 1437 1436 1436 1435 1434 1432 1431 1429 1427 1424 1422 1419 1416 1414 1411 1408 1404 1401 1398 1395 1392 1388 1385 1382 1379 1376 1373 1371 1368 1365 1362
1416 1417 1418 1420 1422 1424 1426 1428 1430 1431 1432 1433 1433 1433 1433 1432 1431 1430 1429 1427 1425 1423 1420 1417 1415 1412 1409 1406 1403 1400 1397 1394 1391 1388 1385 1381 1378 1375 1372 1370 1367 1364 1361 1358
1415 1416 1417 1419 1420 1422 1424 1426 1427 1428 1429 1430 1430 1430 1429 1428 1427 1426 1425 1423 1421 1418 1416 1413 1410 1408 1405 1402 1399 1396 1393 1390 1387 1384 1381 1378 1375 1372 1368 1366 1363 1360 1357 1354
1414 1415 1417 1418 1419 1420 1422 1423 1425 1426 1426 1427 1427 1426 1426 1425 1424 1422 1420 1418 1416 1414 1411 1409 1406 1403 1400 1397 1394 1392 1389 1386 1383 1380 1377 1374 1371 1368 1365 1362 1359 1356 1354 1351
1413 1414 1415 1416 1417 1418 1420 1421 1422 1422 1423 1423 1423 1422 1422 1421 1420 1418 1416 1414 1412 1410 1407 1404 1402 1399 1396 1393 1390 1388 1385 1382 1379 1376 1373 1370 1367 1364 1361 1359 1356 1353 1350 1348
1410 1412 1413 1414 1415 1416 1417 1418 1418 1419 1419 1419 1419 1419 1418 1417 1416 1414 1412 1410 1408 1405 1403 1400 1398 1395 1392 1389 1387 1384 1381 1378 1376 1373 1370 1367 1364 1361 1358 1355 1353 1350 1348 1345
1407 1409 1410 1411 1412 1413 1414 1414 1415 1415 1415 1415 1415 1415 1414 1413 1412 1410 1408 1406 1404 1401 1399 1396 1394 1391 1388 1386 1383 1380 1377 1375 1372 1369 1367 1364 1361 1358 1355 1353 1350 1348 1345 1343